EHI
0 0 0 0 0 0 1 0 0 0 0 0 1 2 2 1 0 0 0 0 0 1 1 1 1 1 0 0 0 0 0 1 1 1 0 1 1 1 0 0 0 0 0
0 0 0 0 0 1 1 0 0 0 0 0 0 1 2 2 1 0 0 1 1 1 1 0 0 0 0 0 0 0 0 0 0 0 0 0 0 0 0 0 0 0 0
0 0 0 0 0 1 1 1 1 1 1 1 0 0 1 2 1 0 0 1 2 1 1 0 0 0 0 0 0 0 0 0 0 0 0 0 0 0 0 0 0 0 0
1 0 0 0 0 1 2 2 2 1 1 0 0 0 0 1 1 0 0 1 1 1 1 1 0 0 0 0 0 0 0 0 0 0 1 0 0 0 0 0 0 0 0
1 0 0 0 0 1 1 1 1 1 0 0 0 0 0 0 0 0 0 0 0 0 0 0 0 0 0 0 0 0 0 0 1 1 1 1 0 0 0 0 0 0 0
1 0 0 0 0 0 0 0 0 0 0 0 0 0 0 0 0 0 0 0 0 0 0 0 0 1 1 0 0 0 1 2 4 3 1 2 1 0 0 0 0 0 0
2 1 1 2 1 0 0 0 0 0 0 0 0 0 0 0 0 0 0 0 0 0 0 0 1 2 2 1 1 1 2 5 6 3 2 2 1 0 0 0 0 0 0
4 3 2 2 1 1 1 0 0 0 0 0 0 0 0 0 0 0 0 0 0 0 0 0 1 2 2 1 1 2 4 8 8 3 1 1 1 1 0 0 0 0 0
5 3 2 1 1 1 1 1 0 0 0 0 0 0 0 0 0 0 0 0 0 0 0 0 0 1 1 0 1 1 3 7 7 3 0 1 2 2 1 0 0 0 0
4 3 2 2 2 2 1 2 2 1 0 1 1 2 2 1 0 1 1 1 0 0 0 1 1 1 0 0 1 2 3 4 4 2 0 2 5 4 1 0 0 0 0
2 3 3 4 5 3 3 4 4 3 3 2 3 5 5 2 1 1 2 2 1 0 1 2 2 1 0 0 3 6 5 2 1 0 2 5 8 6 2 0 0 0 0
1 2 3 5 5 4 3 4 3 5 6 5 5 6 6 4 1 1 3 3 1 0 1 2 2 1 0 1 4 8 7 3 1 0 4 9 12 9 5 3 2 1 0
0 1 2 4 4 6 6 5 3 5 7 8 8 8 6 5 2 1 3 3 1 1 1 2 2 1 1 2 4 6 6 3 1 2 8 14 16 13 10 6 4 2 1
1 1 2 3 5 9 11 8 5 5 7 10 12 10 7 5 3 2 4 3 2 3 3 2 2 3 2 2 3 4 4 2 2 4 11 17 18 15 12 8 4 2 1
2 3 5 7 8 10 12 11 9 7 7 11 14 12 8 7 5 4 5 4 4 5 5 4 4 5 4 2 3 3 3 3 4 6 11 16 18 16 13 8 4 2 1
4 5 8 12 14 11 10 11 12 10 10 12 15 14 12 11 8 6 6 6 5 5 6 5 5 6 5 4 3 4 4 3 5 7 9 13 16 15 13 8 5 4 4
10 10 10 12 15 14 11 11 11 12 13 15 15 14 13 13 10 8 7 6 5 6 7 6 5 5 5 4 4 5 5 4 4 6 8 10 11 11 11 10 8 7 7
21 17 11 8 12 15 14 12 11 13 16 16 15 14 13 12 10 9 8 7 5 5 7 6 5 6 4 2 3 4 5 6 6 5 6 8 7 7 10 12 11 10 10
30 24 15 9 10 14 15 13 12 14 15 15 16 16 14 12 10 10 9 8 6 5 5 5 5 6 4 2 2 3 4 7 9 8 6 7 7 7 8 10 10 10 11
35 31 25 16 13 14 14 13 13 14 13 14 17 16 14 12 11 10 9 9 8 6 5 4 5 6 6 5 4 3 3 6 11 11 7 4 5 7 9 9 8 7 7
42 41 36 28 23 20 17 15 15 14 12 15 18 16 13 12 11 9 8 9 8 7 6 6 7 8 9 8 6 5 5 6 8 9 6 3 4 6 11 14 13 8 5
50 48 43 39 36 30 24 20 17 14 12 15 19 19 15 12 10 8 8 9 9 9 8 9 11 10 8 7 7 7 6 5 4 4 4 3 3 6 10 16 18 14 11
51 48 46 48 45 37 31 26 22 19 17 18 21 24 21 16 11 9 9 9 9 10 11 12 11 9 6 6 6 6 5 4 3 2 2 3 4 6 8 11 16 17 15
47 46 51 56 51 42 35 31 28 26 25 24 25 26 25 21 16 13 12 11 10 11 13 13 11 9 8 7 6 6 6 5 4 2 1 2 5 7 8 9 11 14 14
43 48 58 64 60 52 43 37 33 31 29 27 27 27 28 27 25 21 18 15 13 13 14 14 11 11 12 11 8 8 8 7 6 4 2 2 4 7 8 9 10 12 13
43 51 63 69 67 59 50 41 37 35 31 27 27 28 30 32 32 29 23 18 16 16 17 15 12 12 14 14 11 9 9 9 7 5 3 2 2 4 6 7 9 12 13
Wind_Speed
10 11 12 12 12 12 12 13 13 14 14 14 14 15 15 16 15 15 15 15 15 15 16 16 16 16 16 16 16 16 16 15 15 15 16 16 15 14 14 14 14 13 16
12 12 11 11 12 12 13 13 14 14 14 14 14 15 15 15 15 15 15 15 15 16 16 16 16 16 15 15 15 15 14 14 15 15 15 14 14 13 12 12 13 12 16
13 12 11 11 12 13 13 13 13 14 14 14 14 14 14 15 15 15 15 15 16 16 16 16 15 15 15 14 14 13 13 13 13 14 13 10 11 13 14 15 17 16 15
13 11 11 11 12 13 13 13 13 13 14 14 14 14 14 14 14 14 15 15 15 16 15 15 14 14 14 13 12 12 11 11 11 9 6 9 10 14 15 15 15 14 14
14 13 12 12 12 13 13 13 13 13 14 14 14 13 13 14 14 14 15 15 15 15 14 14 14 13 13 12 11 9 8 7 7 5 5 9 9 13 14 14 13 13 13
15 14 13 12 12 12 12 12 12 13 13 13 13 13 13 13 14 14 14 14 14 14 14 13 13 12 11 10 9 7 5 3 2 4 7 10 9 12 14 13 12 12 12
14 14 13 12 12 11 11 11 12 12 12 12 12 12 12 13 13 14 14 14 14 14 13 13 12 11 10 8 6 4 3 1 1 4 7 9 10 12 13 13 12 12 11
14 14 12 12 12 11 11 11 11 11 11 11 11 11 11 12 12 13 13 13 13 12 12 11 10 10 8 6 4 2 1 2 3 7 9 10 12 13 13 12 12 11 11
13 13 11 11 10 11 12 11 10 10 10 10 10 10 10 11 11 11 11 11 11 10 10 9 9 8 7 5 2 0 1 3 1 4 10 8 12 13 13 12 11 10 10
10 11 9 10 9 9 10 10 10 9 9 8 8 8 8 10 10 10 10 10 9 9 8 7 7 6 5 3 2 2 3 4 2 6 6 9 13 13 12 11 10 10 9
8 8 7 8 7 7 9 11 10 9 7 7 6 6 6 5 6 7 9 10 9 8 7 6 6 5 4 4 4 4 3 2 2 5 6 12 14 13 12 11 10 9 9
7 7 6 7 5 5 6 7 5 5 5 3 4 5 3 2 3 6 9 10 9 7 6 6 6 6 6 4 6 5 2 3 2 4 7 14 13 13 12 11 10 10 9
6 6 7 8 5 5 4 4 2 3 4 3 3 3 2 2 3 5 5 5 5 7 5 6 7 5 4 3 2 4 3 1 2 5 8 12 12 12 11 10 10 10 10
6 7 8 8 6 5 4 2 2 3 2 2 2 2 2 1 1 1 2 3 3 2 3 3 3 3 2 1 1 1 1 1 2 4 7 12 11 10 10 10 10 10 10
6 7 8 7 6 4 3 2 3 3 3 3 2 2 1 1 1 1 1 1 0 1 2 1 0 0 0 0 1 1 1 1 3 4 5 10 11 10 10 10 9 9 10
7 7 7 7 6 3 2 1 1 2 2 3 2 3 2 1 1 1 0 1 1 0 1 1 1 1 1 0 0 1 1 1 2 3 4 6 8 9 9 8 8 9 9
7 7 6 7 6 3 2 0 1 1 2 3 3 2 1 2 1 1 1 1 1 0 0 0 0 1 1 1 1 1 1 1 2 2 3 3 4 6 7 7 7 7 8
8 7 3 5 7 4 2 1 1 2 3 2 2 2 2 1 0 1 1 1 1 1 1 1 0 0 0 0 1 1 1 1 2 2 3 3 3 3 5 7 7 6 7
8 7 5 4 5 4 3 2 1 2 2 1 1 1 1 1 0 1 0 0 1 0 1 1 1 1 0 0 0 1 1 1 1 2 2 3 3 3 3 5 6 5 5
8 7 6 5 4 3 2 1 1 1 1 1 1 2 2 1 1 1 0 1 1 0 1 1 1 0 0 0 1 0 1 1 1 2 2 2 2 3 3 3 4 3 4
9 8 6 5 4 2 1 1 1 1 1 1 2 2 2 1 1 1 2 1 1 0 0 1 0 1 1 1 1 1 1 1 2 2 2 2 2 3 3 3 3 2 2
10 9 7 6 5 4 2 1 1 1 1 2 2 2 2 2 2 1 1 0 1 0 0 0 0 1 1 1 1 1 1 1 2 2 2 2 2 3 3 3 3 3 2
10 9 8 7 6 5 4 2 1 1 0 1 2 2 1 2 2 1 1 1 1 1 1 1 0 1 1 1 1 1 1 1 1 1 2 2 3 3 3 3 4 4 4
11 10 8 7 6 5 4 2 3 3 2 2 2 2 2 2 1 1 1 1 2 1 1 1 1 1 1 1 1 0 0 2 2 1 1 2 3 3 3 3 4 4 4
12 11 9 8 6 5 4 3 2 1 2 2 3 3 2 2 1 1 2 1 2 1 1 2 1 1 1 1 1 1 0 1 1 2 1 1 2 3 4 4 4 4 5
11 11 11 9 7 6 5 4 3 2 1 2 2 1 2 2 1 1 2 1 1 1 1 1 1 1 1 1 1 1 1 0 1 1 2 2 2 2 4 3 3 4 4
Wind_Direction
85 77 64 63 65 67 69 71 75 74 73 76 77 81 88 90 92 92 94 96 96 95 94 94 94 94 95 97 100 102 104 105 106 106 108 110 112 115 118 121 121 112 115
95 88 76 65 67 69 73 75 76 75 73 76 78 81 87 88 91 93 95 97 98 96 95 94 95 96 97 99 103 107 109 111 114 114 113 112 113 113 114 114 112 117 120
98 96 85 72 71 73 76 80 81 78 75 74 76 80 85 89 91 92 94 98 98 97 96 95 95 98 99 100 103 108 112 117 121 125 126 120 114 110 108 107 112 119 120
98 93 84 80 76 76 77 81 82 81 77 76 77 80 83 88 91 93 94 97 98 97 97 97 97 98 99 102 105 109 114 121 128 139 131 117 114 110 110 111 115 119 121
97 93 91 86 81 79 79 81 82 83 80 80 80 81 84 86 90 94 96 98 98 98 97 99 101 99 100 102 105 110 116 123 133 139 105 99 101 115 114 117 120 122 122
106 100 96 92 87 84 84 86 86 86 83 82 81 81 84 85 89 95 97 97 99 101 102 101 101 101 102 102 105 108 109 124 142 120 111 108 110 120 121 122 124 124 123
108 105 105 101 95 90 88 89 89 89 88 86 86 86 86 88 91 94 96 97 99 100 102 103 104 105 104 104 106 105 103 76 196 106 102 105 115 123 125 127 126 127 129
109 107 111 111 106 102 102 100 96 94 94 94 93 93 94 94 96 98 99 101 103 104 106 109 111 110 108 106 108 103 73 321 96 109 106 109 124 126 126 128 131 133 136
112 116 127 127 120 113 111 111 109 106 102 103 103 103 105 105 105 106 105 105 107 110 111 113 115 117 119 122 129 160 299 324 21 115 112 119 130 131 132 135 137 140 143
108 116 129 133 138 133 125 125 122 121 119 117 117 120 122 120 120 121 121 117 117 119 121 124 127 133 138 154 199 261 294 317 198 111 109 127 137 137 140 144 146 148 149
103 111 123 122 130 137 131 135 139 136 137 139 141 147 153 149 139 137 123 129 130 131 138 147 154 165 180 201 228 250 279 260 110 108 114 134 143 144 146 150 153 155 157
114 118 114 109 113 114 115 129 144 142 142 165 143 157 167 155 133 132 133 144 150 156 164 177 186 195 207 206 211 222 237 214 143 118 122 143 148 150 152 157 162 164 166
125 116 111 101 95 87 96 119 121 124 131 146 135 135 128 125 140 139 149 154 168 179 188 182 198 214 206 204 193 188 207 225 119 111 135 149 151 155 159 165 170 174 176
122 111 101 99 84 61 55 80 116 106 117 113 110 108 110 94 42 101 142 159 175 179 183 191 204 202 198 174 218 188 158 104 98 110 143 153 158 162 166 171 178 182 184
120 108 97 94 86 80 52 12 68 71 89 97 94 84 83 95 72 50 23 36 153 162 158 176 203 14 236 218 226 189 154 136 104 113 135 158 162 168 173 179 185 189 190
127 114 112 113 108 100 97 52 60 92 109 102 84 79 78 91 96 93 39 10 307 343 111 167 170 167 199 197 207 51 65 68 92 116 137 160 169 173 179 184 193 199 198
129 121 128 132 122 120 121 158 113 102 99 101 106 106 105 109 130 183 170 198 248 253 143 267 275 158 195 178 146 152 137 119 124 131 143 158 168 176 182 184 193 199 201
132 128 136 129 125 123 99 20 23 44 67 74 104 113 91 86 130 204 186 173 222 223 221 218 244 248 108 53 92 129 136 143 155 161 151 151 153 162 175 179 183 187 198
133 134 135 115 125 137 143 157 120 82 78 103 91 93 92 106 355 297 89 85 283 292 271 272 97 29 12 24 203 185 181 157 156 151 130 137 135 139 154 173 171 172 182
139 141 144 138 133 144 142 145 117 121 143 113 90 80 101 132 103 338 195 88 331 324 338 32 54 142 235 236 267 25 79 120 114 107 131 122 127 135 133 142 156 153 148
147 150 155 158 151 156 154 166 167 164 157 126 123 101 106 89 71 57 30 29 310 357 335 317 21 224 213 180 163 113 84 90 99 101 98 99 96 97 106 114 129 140 144
157 159 162 166 163 169 162 163 175 153 142 127 102 104 84 80 51 64 77 329 35 359 11 327 253 278 259 193 173 162 131 69 56 76 83 79 81 81 90 99 95 101 100
165 170 172 172 167 172 164 174 164 137 131 138 130 115 101 92 81 36 37 17 358 24 61 279 18 308 279 283 187 174 162 149 99 57 76 85 81 75 69 74 79 78 81
169 168 162 162 162 164 171 182 186 178 172 138 125 126 135 123 110 93 51 30 2 8 24 341 59 315 286 307 302 276 181 130 151 110 54 61 67 66 62 66 75 83 85
170 164 160 157 161 165 173 184 194 183 163 135 124 138 152 138 132 79 73 41 2 21 13 339 349 347 342 311 312 325 351 115 128 145 139 95 65 50 55 58 64 69 72
166 163 160 157 162 165 174 177 164 154 116 104 117 156 178 152 122 83 90 50 12 11 349 2 345 12 3 329 313 311 309 120 162 149 153 144 110 80 66 55 60 71 73